owner,sensor,date,latitude,longitude,air_temperature,qcFlag 
COMPS,ioos:station:USF.COMPS:BGC:1,2011-04-01T00:00:00Z,26.4040,-81.8810,25.1,1111122 
COMPS,ioos:station:USF.COMPS:BGC:1,2011-04-01T00:06:00Z,26.4040,-81.8810,25.06,1111122 
COMPS,ioos:station:USF.COMPS:BGC:1,2011-04-01T00:12:00Z,26.4040,-81.8810,25.08,1111122 
COMPS,ioos:station:USF.COMPS:BGC:1,2011-04-01T00:18:00Z,26.4040,-81.8810,25.1,1111122 
COMPS,ioos:station:USF.COMPS:BGC:1,2011-04-01T00:24:00Z,26.4040,-81.8810,25.07,1111122 
COMPS,ioos:station:USF.COMPS:BGC:1,2011-04-01T00:30:00Z,26.4040,-81.8810,25.03,1111122 
COMPS,ioos:station:USF.COMPS:BGC:1,2011-04-01T00:36:00Z,26.4040,-81.8810,25.06,1111122 
COMPS,ioos:station:USF.COMPS:BGC:1,2011-04-01T00:42:00Z,26.4040,-81.8810,25.03,1111122 
COMPS,ioos:station:USF.COMPS:BGC:1,2011-04-01T00:48:00Z,26.4040,-81.8810,25.05,1111122 
COMPS,ioos:station:USF.COMPS:BGC:1,2011-04-01T00:54:00Z,26.4040,-81.8810,25.04,1111122 
COMPS,ioos:station:USF.COMPS:BGC:1,2011-04-01T03:00:00Z,26.4040,-81.8810,23.23,1111122 
COMPS,ioos:station:USF.COMPS:BGC:1,2011-04-01T03:06:00Z,26.4040,-81.8810,23.28,1111122 
COMPS,ioos:station:USF.COMPS:BGC:1,2011-04-01T03:12:00Z,26.4040,-81.8810,23.2,1111122 
COMPS,ioos:station:USF.COMPS:BGC:1,2011-04-01T03:18:00Z,26.4040,-81.8810,23.29,1111122 
COMPS,ioos:station:USF.COMPS:BGC:1,2011-04-01T03:24:00Z,26.4040,-81.8810,23.25,1111122 
COMPS,ioos:station:USF.COMPS:BGC:1,2011-04-01T03:30:00Z,26.4040,-81.8810,23.28,1111122 
COMPS,ioos:station:USF.COMPS:BGC:1,2011-04-01T03:36:00Z,26.4040,-81.8810,23.3,1111122 
COMPS,ioos:station:USF.COMPS:BGC:1,2011-04-01T03:42:00Z,26.4040,-81.8810,23.21,1111122 
COMPS,ioos:station:USF.COMPS:BGC:1,2011-04-01T03:48:00Z,26.4040,-81.8810,23.0,1111122 
COMPS,ioos:station:USF.COMPS:BGC:1,2011-04-01T03:54:00Z,26.4040,-81.8810,23.09,1111122 
COMPS,ioos:station:USF.COMPS:BGC:1,2011-04-01T05:00:00Z,26.4040,-81.8810,23.37,1111122 
COMPS,ioos:station:USF.COMPS:BGC:1,2011-04-01T05:06:00Z,26.4040,-81.8810,23.41,1111122 
COMPS,ioos:station:USF.COMPS:BGC:1,2011-04-01T05:12:00Z,26.4040,-81.8810,23.34,1111122 
COMPS,ioos:station:USF.COMPS:BGC:1,2011-04-01T05:18:00Z,26.4040,-81.8810,23.27,1111122 
COMPS,ioos:station:USF.COMPS:BGC:1,2011-04-01T05:24:00Z,26.4040,-81.8810,23.13,1111122 
COMPS,ioos:station:USF.COMPS:BGC:1,2011-04-01T05:30:00Z,26.4040,-81.8810,22.76,1111122 
COMPS,ioos:station:USF.COMPS:BGC:1,2011-04-01T05:36:00Z,26.4040,-81.8810,22.68,1111122 
COMPS,ioos:station:USF.COMPS:BGC:1,2011-04-01T05:42:00Z,26.4040,-81.8810,22.78,1111122 
COMPS,ioos:station:USF.COMPS:BGC:1,2011-04-01T05:48:00Z,26.4040,-81.8810,22.76,1111122 
COMPS,ioos:station:USF.COMPS:BGC:1,2011-04-01T05:54:00Z,26.4040,-81.8810,22.79,1111122 
COMPS,ioos:station:USF.COMPS:BGC:1,2011-04-01T08:00:00Z,26.4040,-81.8810,23.13,1111122 
COMPS,ioos:station:USF.COMPS:BGC:1,2011-04-01T08:06:00Z,26.4040,-81.8810,23.05,1111122 
COMPS,ioos:station:USF.COMPS:BGC:1,2011-04-01T08:12:00Z,26.4040,-81.8810,23.02,1111122 
COMPS,ioos:station:USF.COMPS:BGC:1,2011-04-01T08:18:00Z,26.4040,-81.8810,23.06,1111122 
COMPS,ioos:station:USF.COMPS:BGC:1,2011-04-01T08:24:00Z,26.4040,-81.8810,23.17,1111122 
COMPS,ioos:station:USF.COMPS:BGC:1,2011-04-01T08:30:00Z,26.4040,-81.8810,23.26,1111122 
COMPS,ioos:station:USF.COMPS:BGC:1,2011-04-01T08:36:00Z,26.4040,-81.8810,23.26,1111122 
COMPS,ioos:station:USF.COMPS:BGC:1,2011-04-01T08:42:00Z,26.4040,-81.8810,23.31,1111122 
COMPS,ioos:station:USF.COMPS:BGC:1,2011-04-01T08:48:00Z,26.4040,-81.8810,23.27,1111122 
COMPS,ioos:station:USF.COMPS:BGC:1,2011-04-01T08:54:00Z,26.4040,-81.8810,23.26,1111122 
COMPS,ioos:station:USF.COMPS:BGC:1,2011-04-01T11:00:00Z,26.4040,-81.8810,22.66,1111122 
COMPS,ioos:station:USF.COMPS:BGC:1,2011-04-01T11:06:00Z,26.4040,-81.8810,22.48,1111122 
COMPS,ioos:station:USF.COMPS:BGC:1,2011-04-01T11:12:00Z,26.4040,-81.8810,22.31,1111122 
COMPS,ioos:station:USF.COMPS:BGC:1,2011-04-01T11:18:00Z,26.4040,-81.8810,22.18,1111122 
COMPS,ioos:station:USF.COMPS:BGC:1,2011-04-01T11:24:00Z,26.4040,-81.8810,22.04,1111122 
COMPS,ioos:station:USF.COMPS:BGC:1,2011-04-01T11:30:00Z,26.4040,-81.8810,22.04,1111122 
COMPS,ioos:station:USF.COMPS:BGC:1,2011-04-01T11:36:00Z,26.4040,-81.8810,22.05,1111122 
COMPS,ioos:station:USF.COMPS:BGC:1,2011-04-01T11:42:00Z,26.4040,-81.8810,22.09,1111122 
COMPS,ioos:station:USF.COMPS:BGC:1,2011-04-01T11:48:00Z,26.4040,-81.8810,22.13,1111122 
COMPS,ioos:station:USF.COMPS:BGC:1,2011-04-01T11:54:00Z,26.4040,-81.8810,22.11,1111122 
COMPS,ioos:station:USF.COMPS:BGC:1,2011-04-01T12:00:00Z,26.4040,-81.8810,22.14,1111122 
COMPS,ioos:station:USF.COMPS:BGC:1,2011-04-01T12:06:00Z,26.4040,-81.8810,22.1,1111122 
COMPS,ioos:station:USF.COMPS:BGC:1,2011-04-01T12:12:00Z,26.4040,-81.8810,22.13,1111122 
COMPS,ioos:station:USF.COMPS:BGC:1,2011-04-01T12:18:00Z,26.4040,-81.8810,22.06,1111122 
COMPS,ioos:station:USF.COMPS:BGC:1,2011-04-01T12:24:00Z,26.4040,-81.8810,22.15,1111122 
COMPS,ioos:station:USF.COMPS:BGC:1,2011-04-01T12:30:00Z,26.4040,-81.8810,22.13,1111122 
COMPS,ioos:station:USF.COMPS:BGC:1,2011-04-01T12:36:00Z,26.4040,-81.8810,22.15,1111122 
COMPS,ioos:station:USF.COMPS:BGC:1,2011-04-01T12:42:00Z,26.4040,-81.8810,22.09,1111122 
COMPS,ioos:station:USF.COMPS:BGC:1,2011-04-01T12:48:00Z,26.4040,-81.8810,22.09,1111122 
COMPS,ioos:station:USF.COMPS:BGC:1,2011-04-01T12:54:00Z,26.4040,-81.8810,22.12,1111122 
COMPS,ioos:station:USF.COMPS:BGC:1,2011-04-01T15:00:00Z,26.4040,-81.8810,23.07,1111122 
COMPS,ioos:station:USF.COMPS:BGC:1,2011-04-01T15:06:00Z,26.4040,-81.8810,23.26,1111122 
COMPS,ioos:station:USF.COMPS:BGC:1,2011-04-01T15:12:00Z,26.4040,-81.8810,23.35,1111122 
COMPS,ioos:station:USF.COMPS:BGC:1,2011-04-01T15:18:00Z,26.4040,-81.8810,23.41,1111122 
COMPS,ioos:station:USF.COMPS:BGC:1,2011-04-01T15:24:00Z,26.4040,-81.8810,23.36,1111122 
COMPS,ioos:station:USF.COMPS:BGC:1,2011-04-01T15:30:00Z,26.4040,-81.8810,23.29,1111122 
COMPS,ioos:station:USF.COMPS:BGC:1,2011-04-01T15:36:00Z,26.4040,-81.8810,23.55,1111122 
COMPS,ioos:station:USF.COMPS:BGC:1,2011-04-01T15:42:00Z,26.4040,-81.8810,23.53,1111122 
COMPS,ioos:station:USF.COMPS:BGC:1,2011-04-01T15:48:00Z,26.4040,-81.8810,23.63,1111122 
COMPS,ioos:station:USF.COMPS:BGC:1,2011-04-01T15:54:00Z,26.4040,-81.8810,23.68,1111122 
COMPS,ioos:station:USF.COMPS:BGC:1,2011-04-01T16:00:00Z,26.4040,-81.8810,23.48,1111122 
COMPS,ioos:station:USF.COMPS:BGC:1,2011-04-01T16:06:00Z,26.4040,-81.8810,23.49,1111122 
COMPS,ioos:station:USF.COMPS:BGC:1,2011-04-01T16:12:00Z,26.4040,-81.8810,23.54,1111122 
COMPS,ioos:station:USF.COMPS:BGC:1,2011-04-01T16:18:00Z,26.4040,-81.8810,23.64,1111122 
COMPS,ioos:station:USF.COMPS:BGC:1,2011-04-01T16:24:00Z,26.4040,-81.8810,23.75,1111122 
COMPS,ioos:station:USF.COMPS:BGC:1,2011-04-01T16:30:00Z,26.4040,-81.8810,23.67,1111122 
COMPS,ioos:station:USF.COMPS:BGC:1,2011-04-01T16:36:00Z,26.4040,-81.8810,23.48,1111122 
COMPS,ioos:station:USF.COMPS:BGC:1,2011-04-01T16:42:00Z,26.4040,-81.8810,23.6,1111122 
COMPS,ioos:station:USF.COMPS:BGC:1,2011-04-01T16:48:00Z,26.4040,-81.8810,23.32,1111122 
COMPS,ioos:station:USF.COMPS:BGC:1,2011-04-01T16:54:00Z,26.4040,-81.8810,23.75,1111122 
COMPS,ioos:station:USF.COMPS:BGC:1,2011-04-01T21:00:00Z,26.4040,-81.8810,24.53,1111122 
COMPS,ioos:station:USF.COMPS:BGC:1,2011-04-01T21:06:00Z,26.4040,-81.8810,24.49,1111122 
COMPS,ioos:station:USF.COMPS:BGC:1,2011-04-01T21:12:00Z,26.4040,-81.8810,24.53,1111122 
COMPS,ioos:station:USF.COMPS:BGC:1,2011-04-01T21:18:00Z,26.4040,-81.8810,24.52,1111122 
COMPS,ioos:station:USF.COMPS:BGC:1,2011-04-01T21:24:00Z,26.4040,-81.8810,24.6,1111122 
COMPS,ioos:station:USF.COMPS:BGC:1,2011-04-01T21:30:00Z,26.4040,-81.8810,24.61,1111122 
COMPS,ioos:station:USF.COMPS:BGC:1,2011-04-01T21:36:00Z,26.4040,-81.8810,24.8,1111122 
COMPS,ioos:station:USF.COMPS:BGC:1,2011-04-01T21:42:00Z,26.4040,-81.8810,24.94,1111122 
COMPS,ioos:station:USF.COMPS:BGC:1,2011-04-01T21:48:00Z,26.4040,-81.8810,25.23,1111122 
COMPS,ioos:station:USF.COMPS:BGC:1,2011-04-01T21:54:00Z,26.4040,-81.8810,25.33,1111122 
COMPS,ioos:station:USF.COMPS:BGC:1,2011-04-02T00:00:00Z,26.4040,-81.8810,24.15,1111122 
COMPS,ioos:station:USF.COMPS:BGC:1,2011-04-02T00:06:00Z,26.4040,-81.8810,24.07,1111122 
COMPS,ioos:station:USF.COMPS:BGC:1,2011-04-02T00:12:00Z,26.4040,-81.8810,24.04,1111122 
COMPS,ioos:station:USF.COMPS:BGC:1,2011-04-02T00:18:00Z,26.4040,-81.8810,23.96,1111122 
COMPS,ioos:station:USF.COMPS:BGC:1,2011-04-02T00:24:00Z,26.4040,-81.8810,23.95,1111122 
COMPS,ioos:station:USF.COMPS:BGC:1,2011-04-02T00:30:00Z,26.4040,-81.8810,23.85,1111122 
COMPS,ioos:station:USF.COMPS:BGC:1,2011-04-02T00:36:00Z,26.4040,-81.8810,23.79,1111122 
COMPS,ioos:station:USF.COMPS:BGC:1,2011-04-02T00:42:00Z,26.4040,-81.8810,23.79,1111122 
COMPS,ioos:station:USF.COMPS:BGC:1,2011-04-02T00:48:00Z,26.4040,-81.8810,23.78,1111122 
COMPS,ioos:station:USF.COMPS:BGC:1,2011-04-02T00:54:00Z,26.4040,-81.8810,23.74,1111122 
COMPS,ioos:station:USF.COMPS:BGC:1,2011-04-02T03:00:00Z,26.4040,-81.8810,22.37,1111122 
COMPS,ioos:station:USF.COMPS:BGC:1,2011-04-02T03:06:00Z,26.4040,-81.8810,22.35,1111122 
COMPS,ioos:station:USF.COMPS:BGC:1,2011-04-02T03:12:00Z,26.4040,-81.8810,22.36,1111122 
COMPS,ioos:station:USF.COMPS:BGC:1,2011-04-02T03:18:00Z,26.4040,-81.8810,22.31,1111122 
COMPS,ioos:station:USF.COMPS:BGC:1,2011-04-02T03:24:00Z,26.4040,-81.8810,22.27,1111122 
COMPS,ioos:station:USF.COMPS:BGC:1,2011-04-02T03:30:00Z,26.4040,-81.8810,22.37,1111122 
COMPS,ioos:station:USF.COMPS:BGC:1,2011-04-02T03:36:00Z,26.4040,-81.8810,22.57,1111122 
COMPS,ioos:station:USF.COMPS:BGC:1,2011-04-02T03:42:00Z,26.4040,-81.8810,22.57,1111122 
COMPS,ioos:station:USF.COMPS:BGC:1,2011-04-02T03:48:00Z,26.4040,-81.8810,22.52,1111122 
COMPS,ioos:station:USF.COMPS:BGC:1,2011-04-02T03:54:00Z,26.4040,-81.8810,22.43,1111122 
COMPS,ioos:station:USF.COMPS:BGC:1,2011-04-02T06:00:00Z,26.4040,-81.8810,21.61,1111122 
COMPS,ioos:station:USF.COMPS:BGC:1,2011-04-02T06:06:00Z,26.4040,-81.8810,21.32,1111122 
COMPS,ioos:station:USF.COMPS:BGC:1,2011-04-02T06:12:00Z,26.4040,-81.8810,20.99,1111122 
COMPS,ioos:station:USF.COMPS:BGC:1,2011-04-02T06:18:00Z,26.4040,-81.8810,20.96,1111122 
COMPS,ioos:station:USF.COMPS:BGC:1,2011-04-02T06:24:00Z,26.4040,-81.8810,21.09,1111122 
COMPS,ioos:station:USF.COMPS:BGC:1,2011-04-02T06:30:00Z,26.4040,-81.8810,21.0,1111122 
COMPS,ioos:station:USF.COMPS:BGC:1,2011-04-02T06:36:00Z,26.4040,-81.8810,20.9,1111122 
COMPS,ioos:station:USF.COMPS:BGC:1,2011-04-02T06:42:00Z,26.4040,-81.8810,20.69,1111122 
COMPS,ioos:station:USF.COMPS:BGC:1,2011-04-02T06:48:00Z,26.4040,-81.8810,20.48,1111122 
COMPS,ioos:station:USF.COMPS:BGC:1,2011-04-02T06:54:00Z,26.4040,-81.8810,20.33,1111122 
COMPS,ioos:station:USF.COMPS:BGC:1,2011-04-02T09:00:00Z,26.4040,-81.8810,18.13,1111122 
COMPS,ioos:station:USF.COMPS:BGC:1,2011-04-02T09:06:00Z,26.4040,-81.8810,18.28,1111122 
COMPS,ioos:station:USF.COMPS:BGC:1,2011-04-02T09:12:00Z,26.4040,-81.8810,18.27,1111122 
COMPS,ioos:station:USF.COMPS:BGC:1,2011-04-02T09:18:00Z,26.4040,-81.8810,18.3,1111122 
COMPS,ioos:station:USF.COMPS:BGC:1,2011-04-02T09:24:00Z,26.4040,-81.8810,18.45,1111122 
COMPS,ioos:station:USF.COMPS:BGC:1,2011-04-02T09:30:00Z,26.4040,-81.8810,18.57,1111122 
COMPS,ioos:station:USF.COMPS:BGC:1,2011-04-02T09:36:00Z,26.4040,-81.8810,18.31,1111122 
COMPS,ioos:station:USF.COMPS:BGC:1,2011-04-02T09:42:00Z,26.4040,-81.8810,18.28,1111122 
COMPS,ioos:station:USF.COMPS:BGC:1,2011-04-02T09:48:00Z,26.4040,-81.8810,18.31,1111122 
COMPS,ioos:station:USF.COMPS:BGC:1,2011-04-02T09:54:00Z,26.4040,-81.8810,18.25,1111122 
COMPS,ioos:station:USF.COMPS:BGC:1,2011-04-02T12:00:00Z,26.4040,-81.8810,17.28,1111122 
COMPS,ioos:station:USF.COMPS:BGC:1,2011-04-02T12:06:00Z,26.4040,-81.8810,17.41,1111122 
COMPS,ioos:station:USF.COMPS:BGC:1,2011-04-02T12:12:00Z,26.4040,-81.8810,17.9,1111122 
COMPS,ioos:station:USF.COMPS:BGC:1,2011-04-02T12:18:00Z,26.4040,-81.8810,17.97,1111122 
COMPS,ioos:station:USF.COMPS:BGC:1,2011-04-02T12:24:00Z,26.4040,-81.8810,18.05,1111122 
COMPS,ioos:station:USF.COMPS:BGC:1,2011-04-02T12:30:00Z,26.4040,-81.8810,17.96,1111122 
COMPS,ioos:station:USF.COMPS:BGC:1,2011-04-02T12:36:00Z,26.4040,-81.8810,17.8,1111122 
COMPS,ioos:station:USF.COMPS:BGC:1,2011-04-02T12:42:00Z,26.4040,-81.8810,17.94,1111122 
COMPS,ioos:station:USF.COMPS:BGC:1,2011-04-02T12:48:00Z,26.4040,-81.8810,18.32,1111122 
COMPS,ioos:station:USF.COMPS:BGC:1,2011-04-02T12:54:00Z,26.4040,-81.8810,18.72,1111122 
COMPS,ioos:station:USF.COMPS:BGC:1,2011-04-02T17:00:00Z,26.4040,-81.8810,25.85,1111122 
COMPS,ioos:station:USF.COMPS:BGC:1,2011-04-02T17:06:00Z,26.4040,-81.8810,26.09,1111122 
COMPS,ioos:station:USF.COMPS:BGC:1,2011-04-02T17:12:00Z,26.4040,-81.8810,26.04,1111122 
COMPS,ioos:station:USF.COMPS:BGC:1,2011-04-02T17:18:00Z,26.4040,-81.8810,26.43,1111122 
COMPS,ioos:station:USF.COMPS:BGC:1,2011-04-02T17:24:00Z,26.4040,-81.8810,26.45,1111122 
COMPS,ioos:station:USF.COMPS:BGC:1,2011-04-02T17:30:00Z,26.4040,-81.8810,26.82,1111122 
COMPS,ioos:station:USF.COMPS:BGC:1,2011-04-02T17:36:00Z,26.4040,-81.8810,27.22,1111122 
COMPS,ioos:station:USF.COMPS:BGC:1,2011-04-02T17:42:00Z,26.4040,-81.8810,27.15,1111122 
COMPS,ioos:station:USF.COMPS:BGC:1,2011-04-02T17:48:00Z,26.4040,-81.8810,26.74,1111122 
COMPS,ioos:station:USF.COMPS:BGC:1,2011-04-02T17:54:00Z,26.4040,-81.8810,26.6,1111122 
COMPS,ioos:station:USF.COMPS:BGC:1,2011-04-02T20:00:00Z,26.4040,-81.8810,26.74,1111122 
COMPS,ioos:station:USF.COMPS:BGC:1,2011-04-02T20:06:00Z,26.4040,-81.8810,26.74,1111122 
COMPS,ioos:station:USF.COMPS:BGC:1,2011-04-02T20:12:00Z,26.4040,-81.8810,27.05,1111122 
COMPS,ioos:station:USF.COMPS:BGC:1,2011-04-02T20:18:00Z,26.4040,-81.8810,26.94,1111122 
COMPS,ioos:station:USF.COMPS:BGC:1,2011-04-02T20:24:00Z,26.4040,-81.8810,26.94,1111122 
COMPS,ioos:station:USF.COMPS:BGC:1,2011-04-02T20:30:00Z,26.4040,-81.8810,26.89,1111122 
COMPS,ioos:station:USF.COMPS:BGC:1,2011-04-02T20:36:00Z,26.4040,-81.8810,27.09,1111122 
COMPS,ioos:station:USF.COMPS:BGC:1,2011-04-02T20:42:00Z,26.4040,-81.8810,27.05,1111122 
COMPS,ioos:station:USF.COMPS:BGC:1,2011-04-02T20:48:00Z,26.4040,-81.8810,27.19,1111122 
COMPS,ioos:station:USF.COMPS:BGC:1,2011-04-02T20:54:00Z,26.4040,-81.8810,27.32,1111122 
COMPS,ioos:station:USF.COMPS:BGC:1,2011-04-02T23:00:00Z,26.4040,-81.8810,26.61,1111122 
COMPS,ioos:station:USF.COMPS:BGC:1,2011-04-02T23:06:00Z,26.4040,-81.8810,26.15,1111122 
COMPS,ioos:station:USF.COMPS:BGC:1,2011-04-02T23:12:00Z,26.4040,-81.8810,26.16,1111122 
COMPS,ioos:station:USF.COMPS:BGC:1,2011-04-02T23:18:00Z,26.4040,-81.8810,25.91,1111122 
COMPS,ioos:station:USF.COMPS:BGC:1,2011-04-02T23:24:00Z,26.4040,-81.8810,25.55,1111122 
COMPS,ioos:station:USF.COMPS:BGC:1,2011-04-02T23:30:00Z,26.4040,-81.8810,25.37,1111122 
COMPS,ioos:station:USF.COMPS:BGC:1,2011-04-02T23:36:00Z,26.4040,-81.8810,25.3,1111122 
COMPS,ioos:station:USF.COMPS:BGC:1,2011-04-02T23:42:00Z,26.4040,-81.8810,25.24,1111122 
COMPS,ioos:station:USF.COMPS:BGC:1,2011-04-02T23:48:00Z,26.4040,-81.8810,25.18,1111122 
COMPS,ioos:station:USF.COMPS:BGC:1,2011-04-02T23:54:00Z,26.4040,-81.8810,25.17,1111122 
COMPS,ioos:station:USF.COMPS:BGC:1,2011-04-03T02:00:00Z,26.4040,-81.8810,23.72,1111122 
COMPS,ioos:station:USF.COMPS:BGC:1,2011-04-03T02:06:00Z,26.4040,-81.8810,23.73,1111122 
COMPS,ioos:station:USF.COMPS:BGC:1,2011-04-03T02:12:00Z,26.4040,-81.8810,23.67,1111122 
COMPS,ioos:station:USF.COMPS:BGC:1,2011-04-03T02:18:00Z,26.4040,-81.8810,23.61,1111122 
COMPS,ioos:station:USF.COMPS:BGC:1,2011-04-03T02:24:00Z,26.4040,-81.8810,23.55,1111122 
COMPS,ioos:station:USF.COMPS:BGC:1,2011-04-03T02:30:00Z,26.4040,-81.8810,23.64,1111122 
COMPS,ioos:station:USF.COMPS:BGC:1,2011-04-03T02:36:00Z,26.4040,-81.8810,23.68,1111122 
COMPS,ioos:station:USF.COMPS:BGC:1,2011-04-03T02:42:00Z,26.4040,-81.8810,23.68,1111122 
COMPS,ioos:station:USF.COMPS:BGC:1,2011-04-03T02:48:00Z,26.4040,-81.8810,23.69,1111122 
COMPS,ioos:station:USF.COMPS:BGC:1,2011-04-03T02:54:00Z,26.4040,-81.8810,23.67,1111122 
COMPS,ioos:station:USF.COMPS:BGC:1,2011-04-03T05:00:00Z,26.4040,-81.8810,22.38,1111122 
COMPS,ioos:station:USF.COMPS:BGC:1,2011-04-03T05:06:00Z,26.4040,-81.8810,22.27,1111122 
COMPS,ioos:station:USF.COMPS:BGC:1,2011-04-03T05:12:00Z,26.4040,-81.8810,22.17,1111122 
COMPS,ioos:station:USF.COMPS:BGC:1,2011-04-03T05:18:00Z,26.4040,-81.8810,21.96,1111122 
COMPS,ioos:station:USF.COMPS:BGC:1,2011-04-03T05:24:00Z,26.4040,-81.8810,21.8,1111122 
COMPS,ioos:station:USF.COMPS:BGC:1,2011-04-03T05:30:00Z,26.4040,-81.8810,21.79,1111122 
COMPS,ioos:station:USF.COMPS:BGC:1,2011-04-03T05:36:00Z,26.4040,-81.8810,21.94,1111122 
COMPS,ioos:station:USF.COMPS:BGC:1,2011-04-03T05:42:00Z,26.4040,-81.8810,21.91,1111122 
COMPS,ioos:station:USF.COMPS:BGC:1,2011-04-03T05:48:00Z,26.4040,-81.8810,22.09,1111122 
COMPS,ioos:station:USF.COMPS:BGC:1,2011-04-03T05:54:00Z,26.4040,-81.8810,22.17,1111122 
COMPS,ioos:station:USF.COMPS:BGC:1,2011-04-03T08:00:00Z,26.4040,-81.8810,21.42,1111122 
COMPS,ioos:station:USF.COMPS:BGC:1,2011-04-03T08:06:00Z,26.4040,-81.8810,21.58,1111122 
COMPS,ioos:station:USF.COMPS:BGC:1,2011-04-03T08:12:00Z,26.4040,-81.8810,21.56,1111122 
COMPS,ioos:station:USF.COMPS:BGC:1,2011-04-03T08:18:00Z,26.4040,-81.8810,21.45,1111122 
COMPS,ioos:station:USF.COMPS:BGC:1,2011-04-03T08:24:00Z,26.4040,-81.8810,21.34,1111122 
COMPS,ioos:station:USF.COMPS:BGC:1,2011-04-03T08:30:00Z,26.4040,-81.8810,21.23,1111122 
COMPS,ioos:station:USF.COMPS:BGC:1,2011-04-03T08:36:00Z,26.4040,-81.8810,21.25,1111122 
COMPS,ioos:station:USF.COMPS:BGC:1,2011-04-03T08:42:00Z,26.4040,-81.8810,21.23,1111122 
COMPS,ioos:station:USF.COMPS:BGC:1,2011-04-03T08:48:00Z,26.4040,-81.8810,21.26,1111122 
COMPS,ioos:station:USF.COMPS:BGC:1,2011-04-03T08:54:00Z,26.4040,-81.8810,21.13,1111122 
COMPS,ioos:station:USF.COMPS:BGC:1,2011-04-03T11:00:00Z,26.4040,-81.8810,19.79,1111122 
COMPS,ioos:station:USF.COMPS:BGC:1,2011-04-03T11:06:00Z,26.4040,-81.8810,19.69,1111122 
COMPS,ioos:station:USF.COMPS:BGC:1,2011-04-03T11:12:00Z,26.4040,-81.8810,19.69,1111122 
COMPS,ioos:station:USF.COMPS:BGC:1,2011-04-03T11:18:00Z,26.4040,-81.8810,19.57,1111122 
COMPS,ioos:station:USF.COMPS:BGC:1,2011-04-03T11:24:00Z,26.4040,-81.8810,19.6,1111122 
COMPS,ioos:station:USF.COMPS:BGC:1,2011-04-03T11:30:00Z,26.4040,-81.8810,19.67,1111122 
COMPS,ioos:station:USF.COMPS:BGC:1,2011-04-03T11:36:00Z,26.4040,-81.8810,19.85,1111122 
COMPS,ioos:station:USF.COMPS:BGC:1,2011-04-03T11:42:00Z,26.4040,-81.8810,19.91,1111122 
COMPS,ioos:station:USF.COMPS:BGC:1,2011-04-03T11:48:00Z,26.4040,-81.8810,19.92,1111122 
COMPS,ioos:station:USF.COMPS:BGC:1,2011-04-03T11:54:00Z,26.4040,-81.8810,19.97,1111122 
COMPS,ioos:station:USF.COMPS:BGC:1,2011-04-03T14:00:00Z,26.4040,-81.8810,22.8,1111122 
COMPS,ioos:station:USF.COMPS:BGC:1,2011-04-03T14:06:00Z,26.4040,-81.8810,22.8,1111122 
COMPS,ioos:station:USF.COMPS:BGC:1,2011-04-03T14:12:00Z,26.4040,-81.8810,23.15,1111122 
COMPS,ioos:station:USF.COMPS:BGC:1,2011-04-03T14:18:00Z,26.4040,-81.8810,23.4,1111122 
COMPS,ioos:station:USF.COMPS:BGC:1,2011-04-03T14:24:00Z,26.4040,-81.8810,23.49,1111122 
COMPS,ioos:station:USF.COMPS:BGC:1,2011-04-03T14:30:00Z,26.4040,-81.8810,23.71,1111122 
COMPS,ioos:station:USF.COMPS:BGC:1,2011-04-03T14:36:00Z,26.4040,-81.8810,23.96,1111122 
COMPS,ioos:station:USF.COMPS:BGC:1,2011-04-03T14:42:00Z,26.4040,-81.8810,24.21,1111122 
COMPS,ioos:station:USF.COMPS:BGC:1,2011-04-03T14:48:00Z,26.4040,-81.8810,24.2,1111122 
COMPS,ioos:station:USF.COMPS:BGC:1,2011-04-03T14:54:00Z,26.4040,-81.8810,24.32,1111122 
COMPS,ioos:station:USF.COMPS:BGC:1,2011-04-03T17:00:00Z,26.4040,-81.8810,28.07,1111122 
COMPS,ioos:station:USF.COMPS:BGC:1,2011-04-03T17:06:00Z,26.4040,-81.8810,28.08,1111122 
COMPS,ioos:station:USF.COMPS:BGC:1,2011-04-03T17:12:00Z,26.4040,-81.8810,28.15,1111122 
COMPS,ioos:station:USF.COMPS:BGC:1,2011-04-03T17:18:00Z,26.4040,-81.8810,28.29,1111122 
COMPS,ioos:station:USF.COMPS:BGC:1,2011-04-03T17:24:00Z,26.4040,-81.8810,28.42,1111122 
COMPS,ioos:station:USF.COMPS:BGC:1,2011-04-03T17:30:00Z,26.4040,-81.8810,28.56,1111122 
COMPS,ioos:station:USF.COMPS:BGC:1,2011-04-03T17:36:00Z,26.4040,-81.8810,28.82,1111122 
COMPS,ioos:station:USF.COMPS:BGC:1,2011-04-03T17:42:00Z,26.4040,-81.8810,28.68,1111122 
COMPS,ioos:station:USF.COMPS:BGC:1,2011-04-03T17:48:00Z,26.4040,-81.8810,28.72,1111122 
COMPS,ioos:station:USF.COMPS:BGC:1,2011-04-03T17:54:00Z,26.4040,-81.8810,29.11,1111122 
COMPS,ioos:station:USF.COMPS:BGC:1,2011-04-03T20:00:00Z,26.4040,-81.8810,30.15,1111122 
COMPS,ioos:station:USF.COMPS:BGC:1,2011-04-03T20:06:00Z,26.4040,-81.8810,30.39,1111122 
COMPS,ioos:station:USF.COMPS:BGC:1,2011-04-03T20:12:00Z,26.4040,-81.8810,30.18,1111122 
COMPS,ioos:station:USF.COMPS:BGC:1,2011-04-03T20:18:00Z,26.4040,-81.8810,30.22,1111122 
COMPS,ioos:station:USF.COMPS:BGC:1,2011-04-03T20:24:00Z,26.4040,-81.8810,30.54,1111122 
COMPS,ioos:station:USF.COMPS:BGC:1,2011-04-03T20:30:00Z,26.4040,-81.8810,30.58,1111122 
COMPS,ioos:station:USF.COMPS:BGC:1,2011-04-03T20:36:00Z,26.4040,-81.8810,30.43,1111122 
COMPS,ioos:station:USF.COMPS:BGC:1,2011-04-03T20:42:00Z,26.4040,-81.8810,30.55,1111122 
COMPS,ioos:station:USF.COMPS:BGC:1,2011-04-03T20:48:00Z,26.4040,-81.8810,30.55,1111122 
COMPS,ioos:station:USF.COMPS:BGC:1,2011-04-03T20:54:00Z,26.4040,-81.8810,30.42,1111122 
COMPS,ioos:station:USF.COMPS:BGC:1,2011-04-03T23:00:00Z,26.4040,-81.8810,27.62,1111122 
COMPS,ioos:station:USF.COMPS:BGC:1,2011-04-03T23:06:00Z,26.4040,-81.8810,27.55,1111122 
COMPS,ioos:station:USF.COMPS:BGC:1,2011-04-03T23:12:00Z,26.4040,-81.8810,27.18,1111122 
COMPS,ioos:station:USF.COMPS:BGC:1,2011-04-03T23:18:00Z,26.4040,-81.8810,26.65,1111122 
COMPS,ioos:station:USF.COMPS:BGC:1,2011-04-03T23:24:00Z,26.4040,-81.8810,26.69,1111122 
COMPS,ioos:station:USF.COMPS:BGC:1,2011-04-03T23:30:00Z,26.4040,-81.8810,26.37,1111122 
COMPS,ioos:station:USF.COMPS:BGC:1,2011-04-03T23:36:00Z,26.4040,-81.8810,26.13,1111122 
COMPS,ioos:station:USF.COMPS:BGC:1,2011-04-03T23:42:00Z,26.4040,-81.8810,26.16,1111122 
COMPS,ioos:station:USF.COMPS:BGC:1,2011-04-03T23:48:00Z,26.4040,-81.8810,26.19,1111122 
COMPS,ioos:station:USF.COMPS:BGC:1,2011-04-03T23:54:00Z,26.4040,-81.8810,26.11,1111122 
COMPS,ioos:station:USF.COMPS:BGC:1,2011-04-04T02:00:00Z,26.4040,-81.8810,25.64,1111122 
COMPS,ioos:station:USF.COMPS:BGC:1,2011-04-04T02:06:00Z,26.4040,-81.8810,25.66,1111122 
COMPS,ioos:station:USF.COMPS:BGC:1,2011-04-04T02:12:00Z,26.4040,-81.8810,25.6,1111122 
COMPS,ioos:station:USF.COMPS:BGC:1,2011-04-04T02:18:00Z,26.4040,-81.8810,25.68,1111122 
COMPS,ioos:station:USF.COMPS:BGC:1,2011-04-04T02:24:00Z,26.4040,-81.8810,25.8,1111122 
COMPS,ioos:station:USF.COMPS:BGC:1,2011-04-04T02:30:00Z,26.4040,-81.8810,25.72,1111122 
COMPS,ioos:station:USF.COMPS:BGC:1,2011-04-04T02:36:00Z,26.4040,-81.8810,25.64,1111122 
COMPS,ioos:station:USF.COMPS:BGC:1,2011-04-04T02:42:00Z,26.4040,-81.8810,25.63,1111122 
COMPS,ioos:station:USF.COMPS:BGC:1,2011-04-04T02:48:00Z,26.4040,-81.8810,25.78,1111122 
COMPS,ioos:station:USF.COMPS:BGC:1,2011-04-04T02:54:00Z,26.4040,-81.8810,25.68,1111122 
COMPS,ioos:station:USF.COMPS:BGC:1,2011-04-04T05:00:00Z,26.4040,-81.8810,23.68,1111122 
COMPS,ioos:station:USF.COMPS:BGC:1,2011-04-04T05:06:00Z,26.4040,-81.8810,23.56,1111122 
COMPS,ioos:station:USF.COMPS:BGC:1,2011-04-04T05:12:00Z,26.4040,-81.8810,23.56,1111122 
COMPS,ioos:station:USF.COMPS:BGC:1,2011-04-04T05:18:00Z,26.4040,-81.8810,23.54,1111122 
COMPS,ioos:station:USF.COMPS:BGC:1,2011-04-04T05:24:00Z,26.4040,-81.8810,23.49,1111122 
COMPS,ioos:station:USF.COMPS:BGC:1,2011-04-04T05:30:00Z,26.4040,-81.8810,23.42,1111122 
COMPS,ioos:station:USF.COMPS:BGC:1,2011-04-04T05:36:00Z,26.4040,-81.8810,23.31,1111122 
COMPS,ioos:station:USF.COMPS:BGC:1,2011-04-04T05:42:00Z,26.4040,-81.8810,23.24,1111122 
COMPS,ioos:station:USF.COMPS:BGC:1,2011-04-04T05:48:00Z,26.4040,-81.8810,23.21,1111122 
COMPS,ioos:station:USF.COMPS:BGC:1,2011-04-04T05:54:00Z,26.4040,-81.8810,23.18,1111122 
COMPS,ioos:station:USF.COMPS:BGC:1,2011-04-04T08:00:00Z,26.4040,-81.8810,22.5,1111122 
COMPS,ioos:station:USF.COMPS:BGC:1,2011-04-04T08:06:00Z,26.4040,-81.8810,22.51,1111122 